Location: Chatou
(48.8898°N, 2.1586°E)
Time: 11:29:14
(UTC+00:00)

FO-29 - Visible Passes

Search period start: 30 November 2023 00:00
Search period end: 10 December 2023 00:00
Orbit: 800 x 1321 km, 98.6° (Epoch: 29 November)

Date Brightness Start Highest point End Pass type
(mag) Time Alt. Az. Time Alt. Az. Time Alt. Az.
30 Nov 12.4 01:29:14 10° NE 01:30:11 13° NE 01:30:11 13° NE visible
30 Nov 11.2 03:13:20 10° NNE 03:16:39 31° NNE 03:16:39 31° NNE visible
30 Nov 11.2 04:59:25 10° N 05:03:08 22° NW 05:03:08 22° NW visible
01 Dec 11.8 02:18:22 10° NNE 02:20:47 22° NE 02:20:47 22° NE visible
01 Dec 11.0 04:03:34 10° N 04:07:15 31° NNW 04:07:15 31° NNW visible
01 Dec 11.5 05:50:55 10° NNW 05:53:43 13° NW 05:53:43 13° NW visible
02 Dec 12.4 01:24:11 10° NE 01:24:54 12° NE 01:24:54 12° NE visible
02 Dec 11.3 03:08:10 10° NNE 03:11:22 30° NNE 03:11:22 30° NNE visible
02 Dec 11.2 04:54:09 10° N 04:57:50 23° NNW 04:57:50 23° NNW visible
03 Dec 11.9 02:13:14 10° NNE 02:15:30 21° NE 02:15:30 21° NE visible
03 Dec 11.1 03:58:22 10° N 04:01:58 30° N 04:01:58 30° N visible
03 Dec 11.5 05:45:28 10° NNW 05:48:26 14° NW 05:48:26 14° NW visible
04 Dec 12.5 01:19:10 10° NE 01:19:37 11° NE 01:19:37 11° NE visible
04 Dec 11.4 03:03:01 10° NNE 03:06:06 28° NNE 03:06:06 28° NNE visible
04 Dec 11.2 04:48:54 10° N 04:52:34 23° NNW 04:52:34 23° NNW visible
05 Dec 12.0 02:08:08 10° NNE 02:10:13 20° NE 02:10:13 20° NE visible
05 Dec 11.1 03:53:11 10° N 03:56:42 30° N 03:56:42 30° N visible
05 Dec 11.5 05:40:05 10° NNW 05:43:10 15° NW 05:43:10 15° NW visible
06 Dec 12.5 01:14:10 10° NE 01:14:21 11° NE 01:14:21 11° NE visible
06 Dec 11.5 02:57:53 10° NNE 03:00:49 27° NNE 03:00:49 27° NNE visible
06 Dec 11.2 04:43:41 10° N 04:47:18 24° NNW 04:47:18 24° NNW visible
07 Dec 12.1 02:03:03 10° NNE 02:04:58 18° NE 02:04:58 18° NE visible
07 Dec 11.2 03:48:01 10° N 03:51:26 29° N 03:51:26 29° N visible
07 Dec 11.5 05:34:45 10° NNW 05:37:54 16° NW 05:37:54 16° NW visible
08 Dec 11.6 02:52:45 10° NNE 02:55:34 26° NNE 02:55:34 26° NNE visible
08 Dec 11.2 04:38:29 10° N 04:42:02 24° NNW 04:42:02 24° NNW visible
09 Dec 12.1 01:57:58 10° NNE 01:59:42 17° NE 01:59:42 17° NE visible
09 Dec 11.3 03:42:52 10° N 03:46:11 29° N 03:46:11 29° N visible
09 Dec 11.5 05:29:28 10° N 05:32:39 16° NW 05:32:39 16° NW visible
